Time,TemperatureF,DewpointF,PressureIn,WindDirection,WindDirectionDegrees,WindSpeedMPH,WindSpeedGustMPH,Humidity,HourlyPrecipIn,Conditions,Clouds,dailyrainin,SoftwareType,DateUTC
2013-07-27 00:05:00,58.3,54.1,30.02,WNW,292,0.0,-999.0,86,-99.99,,,0.00,Acu-Link.com,2013-07-27 05:05:00,
2013-07-27 00:20:00,58.1,54.2,30.02,WNW,292,0.0,-999.0,87,-99.99,,,0.00,Acu-Link.com,2013-07-27 05:20:00,
2013-07-27 00:36:00,57.7,54.2,30.02,WNW,292,0.0,-999.0,88,-99.99,,,0.00,Acu-Link.com,2013-07-27 05:36:00,
2013-07-27 00:51:00,57.0,53.8,30.02,WNW,292,0.0,-999.0,89,-99.99,,,0.00,Acu-Link.com,2013-07-27 05:51:00,
2013-07-27 01:06:00,56.7,53.8,30.03,WNW,292,0.0,-999.0,90,-99.99,,,0.00,Acu-Link.com,2013-07-27 06:06:00,
2013-07-27 01:37:00,56.3,53.7,30.02,WNW,292,0.0,-999.0,91,-99.99,,,0.00,Acu-Link.com,2013-07-27 06:37:00,
2013-07-27 01:52:00,55.9,53.6,30.02,WNW,292,0.0,-999.0,92,-99.99,,,0.00,Acu-Link.com,2013-07-27 06:52:00,
2013-07-27 02:08:00,55.4,53.4,30.02,WNW,292,0.0,-999.0,93,-99.99,,,0.00,Acu-Link.com,2013-07-27 07:08:00,
2013-07-27 02:23:00,55.4,53.4,30.02,WNW,292,0.0,-999.0,93,-99.99,,,0.00,Acu-Link.com,2013-07-27 07:23:00,
2013-07-27 02:38:00,55.2,53.2,30.02,WNW,292,0.0,-999.0,93,-99.99,,,0.00,Acu-Link.com,2013-07-27 07:38:00,
2013-07-27 02:54:00,54.7,53.0,30.02,WNW,292,0.0,-999.0,94,-99.99,,,0.00,Acu-Link.com,2013-07-27 07:54:00,
2013-07-27 03:10:00,54.3,52.6,30.02,WNW,292,0.0,-999.0,94,-99.99,,,0.00,Acu-Link.com,2013-07-27 08:10:00,
2013-07-27 03:25:00,54.1,52.7,30.02,WNW,292,0.0,-999.0,95,-99.99,,,0.00,Acu-Link.com,2013-07-27 08:25:00,
2013-07-27 03:40:00,53.6,52.5,30.02,WNW,292,0.0,-999.0,96,-99.99,,,0.00,Acu-Link.com,2013-07-27 08:40:00,
2013-07-27 03:55:00,53.2,52.6,30.01,WNW,292,0.0,-999.0,98,-99.99,,,0.00,Acu-Link.com,2013-07-27 08:55:00,
2013-07-27 04:11:00,53.4,53.1,30.01,WNW,292,0.0,-999.0,99,-99.99,,,0.00,Acu-Link.com,2013-07-27 09:11:00,
2013-07-27 05:12:00,53.2,52.9,30.02,WNW,292,0.0,-999.0,99,-99.99,,,0.00,Acu-Link.com,2013-07-27 10:12:00,
2013-07-27 05:27:00,52.9,52.6,30.02,NNW,337,0.0,-999.0,99,-99.99,,,0.00,Acu-Link.com,2013-07-27 10:27:00,
2013-07-27 05:42:00,52.7,52.4,30.03,West,270,0.0,-999.0,99,-99.99,,,0.00,Acu-Link.com,2013-07-27 10:42:00,
2013-07-27 05:58:00,52.5,52.2,30.03,North,0,0.0,-999.0,99,-99.99,,,0.00,Acu-Link.com,2013-07-27 10:58:00,
2013-07-27 06:13:00,52.5,52.2,30.04,North,0,2.2,-999.0,99,-99.99,,,0.00,Acu-Link.com,2013-07-27 11:13:00,
2013-07-27 06:28:00,52.5,52.2,30.04,NNE,22,2.7,-999.0,99,-99.99,,,0.00,Acu-Link.com,2013-07-27 11:28:00,
2013-07-27 06:43:00,53.6,53.3,30.03,NNE,22,3.7,-999.0,99,-99.99,,,0.00,Acu-Link.com,2013-07-27 11:43:00,
2013-07-27 06:59:00,54.9,54.3,30.04,NNE,22,0.0,-999.0,98,-99.99,,,0.00,Acu-Link.com,2013-07-27 11:59:00,
2013-07-27 07:14:00,56.3,54.9,30.05,NNE,22,1.7,-999.0,95,-99.99,,,0.00,Acu-Link.com,2013-07-27 12:14:00,
2013-07-27 07:29:00,58.3,55.7,30.05,NNE,22,2.2,-999.0,91,-99.99,,,0.00,Acu-Link.com,2013-07-27 12:29:00,
2013-07-27 07:44:00,59.9,56.0,30.05,NNE,22,3.7,-999.0,87,-99.99,,,0.00,Acu-Link.com,2013-07-27 12:44:00,
2013-07-27 08:00:00,61.3,56.4,30.05,NNE,22,3.2,-999.0,84,-99.99,,,0.00,Acu-Link.com,2013-07-27 13:00:00,
2013-07-27 08:15:00,63.0,54.6,30.06,NE,45,3.7,-999.0,74,-99.99,,,0.00,Acu-Link.com,2013-07-27 13:15:00,
2013-07-27 08:30:00,64.9,55.7,30.06,NNW,337,2.7,-999.0,72,-99.99,,,0.00,Acu-Link.com,2013-07-27 13:30:00,
2013-07-27 08:45:00,66.6,54.9,30.07,North,0,2.7,-999.0,66,-99.99,,,0.00,Acu-Link.com,2013-07-27 13:45:00,
2013-07-27 09:01:00,68.9,54.0,30.07,NW,315,3.7,-999.0,59,-99.99,,,0.00,Acu-Link.com,2013-07-27 14:01:00,
2013-07-27 09:16:00,65.8,53.3,30.07,NW,315,3.2,-999.0,64,-99.99,,,0.00,Acu-Link.com,2013-07-27 14:16:00,
2013-07-27 09:31:00,66.0,54.3,30.07,West,270,4.2,-999.0,66,-99.99,,,0.00,Acu-Link.com,2013-07-27 14:31:00,
2013-07-27 09:46:00,66.9,54.3,30.07,NNW,337,4.7,-999.0,64,-99.99,,,0.00,Acu-Link.com,2013-07-27 14:46:00,
2013-07-27 10:02:00,68.4,55.7,30.06,West,270,4.2,-999.0,64,-99.99,,,0.00,Acu-Link.com,2013-07-27 15:02:00,
2013-07-27 10:17:00,68.7,55.6,30.05,NW,315,3.7,-999.0,63,-99.99,,,0.00,Acu-Link.com,2013-07-27 15:17:00,
2013-07-27 10:32:00,68.9,54.9,30.05,WSW,247,1.7,-999.0,61,-99.99,,,0.00,Acu-Link.com,2013-07-27 15:32:00,
2013-07-27 10:47:00,70.3,55.3,30.05,NNW,337,6.8,-999.0,59,-99.99,,,0.00,Acu-Link.com,2013-07-27 15:47:00,
2013-07-27 11:02:00,68.4,54.0,30.04,NNW,337,4.2,-999.0,60,-99.99,,,0.00,Acu-Link.com,2013-07-27 16:02:00,
2013-07-27 11:17:00,71.8,54.2,30.04,West,270,4.7,-999.0,54,-99.99,,,0.00,Acu-Link.com,2013-07-27 16:17:00,
2013-07-27 11:33:00,71.8,55.7,30.03,West,270,5.3,-999.0,57,-99.99,,,0.00,Acu-Link.com,2013-07-27 16:33:00,
2013-07-27 11:48:00,70.3,53.9,30.03,North,0,3.7,-999.0,56,-99.99,,,0.00,Acu-Link.com,2013-07-27 16:48:00,
2013-07-27 12:03:00,71.4,53.4,30.03,NNE,22,7.8,-999.0,53,-99.99,,,0.00,Acu-Link.com,2013-07-27 17:03:00,
2013-07-27 12:18:00,72.3,54.2,30.02,WNW,292,5.3,-999.0,53,-99.99,,,0.00,Acu-Link.com,2013-07-27 17:18:00,
2013-07-27 12:33:00,73.4,53.1,30.01,NW,315,8.3,-999.0,49,-99.99,,,0.00,Acu-Link.com,2013-07-27 17:33:00,
2013-07-27 12:48:00,73.9,55.2,30.01,West,270,6.3,-999.0,52,-99.99,,,0.00,Acu-Link.com,2013-07-27 17:48:00,
2013-07-27 13:03:00,73.9,51.8,30.01,WNW,292,5.3,-999.0,46,-99.99,,,0.00,Acu-Link.com,2013-07-27 18:03:00,
2013-07-27 13:18:00,72.3,49.8,30.00,NNW,337,6.8,-999.0,45,-99.99,,,0.00,Acu-Link.com,2013-07-27 18:18:00,
2013-07-27 13:33:00,74.7,49.4,30.00,NNE,22,4.7,-999.0,41,-99.99,,,0.00,Acu-Link.com,2013-07-27 18:33:00,
2013-07-27 13:48:00,75.0,49.7,30.00,North,0,7.3,-999.0,41,-99.99,,,0.00,Acu-Link.com,2013-07-27 18:48:00,
2013-07-27 14:03:00,75.2,50.5,29.99,NNW,337,11.4,-999.0,42,-99.99,,,0.00,Acu-Link.com,2013-07-27 19:03:00,
2013-07-27 14:19:00,75.6,50.9,29.99,WNW,292,7.8,-999.0,42,-99.99,,,0.00,Acu-Link.com,2013-07-27 19:19:00,
2013-07-27 14:34:00,75.6,51.5,29.99,WNW,292,8.9,-999.0,43,-99.99,,,0.00,Acu-Link.com,2013-07-27 19:34:00,
2013-07-27 14:49:00,75.4,50.7,29.98,WNW,292,7.3,-999.0,42,-99.99,,,0.00,Acu-Link.com,2013-07-27 19:49:00,
2013-07-27 15:05:00,73.9,49.3,29.98,NW,315,7.3,-999.0,42,-99.99,,,0.00,Acu-Link.com,2013-07-27 20:05:00,
2013-07-27 15:20:00,76.5,51.0,29.98,West,270,5.3,-999.0,41,-99.99,,,0.00,Acu-Link.com,2013-07-27 20:20:00,
2013-07-27 15:35:00,76.5,52.9,29.98,West,270,2.2,-999.0,44,-99.99,,,0.00,Acu-Link.com,2013-07-27 20:35:00,
2013-07-27 15:50:00,75.9,49.1,29.97,West,270,5.3,-999.0,39,-99.99,,,0.00,Acu-Link.com,2013-07-27 20:50:00,
2013-07-27 16:05:00,74.8,48.8,29.97,NW,315,6.8,-999.0,40,-99.99,,,0.00,Acu-Link.com,2013-07-27 21:05:00,
2013-07-27 16:21:00,75.4,50.0,29.97,WNW,292,6.3,-999.0,41,-99.99,,,0.00,Acu-Link.com,2013-07-27 21:21:00,
2013-07-27 16:36:00,76.8,52.0,29.96,West,270,6.3,-999.0,42,-99.99,,,0.00,Acu-Link.com,2013-07-27 21:36:00,
2013-07-27 16:51:00,75.9,50.5,29.96,West,270,6.8,-999.0,41,-99.99,,,0.00,Acu-Link.com,2013-07-27 21:51:00,
2013-07-27 17:37:00,75.6,50.2,29.95,West,270,1.7,-999.0,41,-99.99,,,0.00,Acu-Link.com,2013-07-27 22:37:00,
2013-07-27 17:52:00,75.6,49.6,29.95,West,270,6.3,-999.0,40,-99.99,,,0.00,Acu-Link.com,2013-07-27 22:52:00,
2013-07-27 18:07:00,72.9,52.6,29.95,North,0,4.7,-999.0,49,-99.99,,,0.00,Acu-Link.com,2013-07-27 23:07:00,
2013-07-27 18:22:00,75.9,49.8,29.95,NW,315,5.3,-999.0,40,-99.99,,,0.00,Acu-Link.com,2013-07-27 23:22:00,
2013-07-27 18:37:00,76.6,49.1,29.95,West,270,4.7,-999.0,38,-99.99,,,0.00,Acu-Link.com,2013-07-27 23:37:00,
2013-07-27 18:52:00,76.5,49.0,29.95,NNW,337,6.8,-999.0,38,-99.99,,,0.00,Acu-Link.com,2013-07-27 23:52:00,
2013-07-27 19:08:00,74.3,49.7,29.94,NNE,22,5.8,-999.0,42,-99.99,,,0.00,Acu-Link.com,2013-07-28 00:08:00,
2013-07-27 19:23:00,73.8,48.6,29.94,NNE,22,3.2,-999.0,41,-99.99,,,0.00,Acu-Link.com,2013-07-28 00:23:00,
2013-07-27 19:38:00,73.9,50.0,29.94,WNW,292,2.2,-999.0,43,-99.99,,,0.00,Acu-Link.com,2013-07-28 00:38:00,
2013-07-27 19:54:00,73.2,49.3,29.95,West,270,2.7,-999.0,43,-99.99,,,0.00,Acu-Link.com,2013-07-28 00:54:00,
2013-07-27 20:09:00,72.3,51.5,29.95,West,270,2.7,-999.0,48,-99.99,,,0.00,Acu-Link.com,2013-07-28 01:09:00,
2013-07-27 20:24:00,69.3,51.9,29.95,West,270,1.7,-999.0,54,-99.99,,,0.00,Acu-Link.com,2013-07-28 01:24:00,
2013-07-27 20:39:00,64.9,51.1,29.95,West,270,0.0,-999.0,61,-99.99,,,0.00,Acu-Link.com,2013-07-28 01:39:00,
2013-07-27 20:54:00,62.2,51.1,29.96,West,270,0.0,-999.0,67,-99.99,,,0.00,Acu-Link.com,2013-07-28 01:54:00,
2013-07-27 21:09:00,60.8,49.8,29.96,West,270,0.0,-999.0,67,-99.99,,,0.00,Acu-Link.com,2013-07-28 02:09:00,
2013-07-27 21:25:00,59.5,51.2,29.97,West,270,0.0,-999.0,74,-99.99,,,0.00,Acu-Link.com,2013-07-28 02:25:00,
2013-07-27 21:40:00,58.5,51.0,29.97,West,270,0.0,-999.0,76,-99.99,,,0.00,Acu-Link.com,2013-07-28 02:40:00,
2013-07-27 21:55:00,57.7,50.2,29.97,West,270,0.0,-999.0,76,-99.99,,,0.00,Acu-Link.com,2013-07-28 02:55:00,
2013-07-27 22:11:00,56.5,51.4,29.97,West,270,0.0,-999.0,83,-99.99,,,0.00,Acu-Link.com,2013-07-28 03:11:00,
2013-07-27 22:57:00,54.3,51.4,29.97,West,270,0.0,-999.0,90,-99.99,,,0.00,Acu-Link.com,2013-07-28 03:57:00,
2013-07-27 23:12:00,54.1,51.2,29.96,West,270,0.0,-999.0,90,-99.99,,,0.00,Acu-Link.com,2013-07-28 04:12:00,
2013-07-27 23:27:00,53.2,50.0,29.97,West,270,0.0,-999.0,89,-99.99,,,0.00,Acu-Link.com,2013-07-28 04:27:00,
2013-07-27 23:42:00,53.1,50.2,29.97,West,270,0.0,-999.0,90,-99.99,,,0.00,Acu-Link.com,2013-07-28 04:42:00,
2013-07-27 23:58:00,52.9,50.6,29.97,West,270,0.0,-999.0,92,-99.99,,,0.00,Acu-Link.com,2013-07-28 04:58:00,